This is the latest recevied weather packets stored in our database for station/object DH5DY-6. If no packets are shown the sender has not sent any weather packets the latest 10 day(s).
| Time | Temp. | Humidity | Pressure | Rain* | Wind** | Luminosity | Snow |
|---|---|---|---|---|---|---|---|
| 1787779335 | 16.11° C | 89% | 1014.1 hPa | 0 mm | - | 0 W/m² | - |
| 1787778735 | 16.11° C | 89% | 1014.3 hPa | 0 mm | - | 0 W/m² | - |
| 1787777535 | 16.67° C | 88% | 1014.2 hPa | 0 mm | - | 0 W/m² | - |
| 1787776935 | 16.67° C | 88% | 1014.3 hPa | 0 mm | - | 0 W/m² | - |
| 1787775735 | 16.67° C | 87% | 1014.2 hPa | 0 mm | - | 0 W/m² | - |
| 1787775135 | 16.67° C | 86% | 1014.2 hPa | 0 mm | - | 0 W/m² | - |
| 1787773335 | 17.22° C | 85% | 1014.3 hPa | 0 mm | - | 0 W/m² | - |
| 1787772135 | 17.78° C | 84% | 1014.4 hPa | 0 mm | - | 0 W/m² | - |
| 1787771535 | 17.78° C | 83% | 1014.3 hPa | 0 mm | - | 0 W/m² | - |
| 1787770335 | 18.33° C | 80% | 1014.2 hPa | 0 mm | - | 0 W/m² | - |
| 1787769735 | 18.89° C | 79% | 1014.2 hPa | 0 mm | - | 0 W/m² | - |
| 1787768534 | 20° C | 76% | 1014.2 hPa | 0 mm | - | 5 W/m² | - |
| 1787767934 | 20.56° C | 75% | 1014.2 hPa | 0 mm | - | 9 W/m² | - |
| 1787767334 | 20.56° C | 73% | 1014.2 hPa | 0 mm | - | 16 W/m² | - |
| 1787766734 | 21.11° C | 71% | 1014.1 hPa | 0 mm | - | 23 W/m² | - |
| 1787766135 | 21.67° C | 70% | 1014 hPa | 0 mm | - | 30 W/m² | - |
| 1787765534 | 22.22° C | 69% | 1014 hPa | 0 mm | - | 53 W/m² | - |
| 1787764934 | 22.22° C | 69% | 1013.9 hPa | 0 mm | - | 84 W/m² | - |
| 1787764335 | 22.22° C | 69% | 1013.7 hPa | 0 mm | - | 114 W/m² | - |
| 1787763734 | 22.78° C | 68% | 1013.7 hPa | 0 mm | - | 144 W/m² | - |
| 1787763134 | 22.78° C | 69% | 1013.7 hPa | 0 mm | - | 169 W/m² | - |
| 1787762534 | 22.78° C | 68% | 1013.9 hPa | 0 mm | - | 202 W/m² | - |
| 1787761933 | 22.78° C | 68% | 1014.2 hPa | 0 mm | - | 227 W/m² | - |
| 1787761335 | 22.78° C | 68% | 1014.1 hPa | 0 mm | - | 253 W/m² | - |
| 1787760734 | 23.33° C | 66% | 1014 hPa | 0 mm | - | 306 W/m² | - |
* Rain latest hour (hover to see other rain measurements)
** Current wind speed in m/s (hover to see current wind gust speed)